Location: Bemmer
(51.5498°N, 5.6249°E)
Time: 12:55:02
(UTC+00:00)

Resurs 01 Rocket - Pass Details

Date: 03 March 2021
Orbit: 635 x 643 km, 98.0° (Epoch: 16 April)

Event Time Altitude Azimuth Distance (km) Brightness Sun altitude
Exits shadow 20:50:14 32° 292° (WNW) 1,094 3.2 -31.8°
Drops below altitude 10° 20:53:22 10° 331° (NNW) 2,036 4.9 -32.2°
Sets 20:55:44 0° 340° (NNW) 2,951 5.8 -32.5°
